Regional Weather Roundup
Issued by NWS

Home | Current Version | Previous Version | Graphics & Text | Print | Product List | Glossary Off
Versions: 1 2 3 4 5 6 7 8 9 10 11 12 13 14 15 16 17 18 19 20 21 22 23 24 25 26 27 28 29 30 31 32 33 34 35 36 37 38 39 40 41 42 43 44 45 46 47 48 49 50

000
ASUS43 KLSX 250259
RWRMO

WEATHER SUMMARY FOR MISSOURI
NATIONAL WEATHER SERVICE SPRINGFIELD MO
1000 PM CDT FRI OCT 24 2014

NOTE: "FAIR" INDICATES FEW OR NO CLOUDS BELOW 12,000 FEET WITH NO
       SIGNIFICANT WEATHER AND/OR OBSTRUCTIONS TO VISIBILITY.
       CURRENT SKY AND/OR WEATHER CONDITIONS ARE NOT AVAILABLE FOR
       CHILLICOTHE AND FARMINGTON.

MOZ001>031-035>038-043-044-053-054-250400-
...NORTHERN AND WESTERN MISSOURI...

CITY           SKY/WX    TMP DP  RH WIND       PRES   REMARKS
KANSAS CTY INT MOCLDY    64  61  90 SW8       29.98R
KANSAS C DTWN  CLEAR     70  61  73 SW6       29.98R
LEE`S SUMMIT   CLEAR     65  60  84 SW8       30.00R
ST JOSEPH      CLEAR     61  60  97 S5        29.97R FOG
CHILLICOTHE      N/A     59  57  93 CALM      29.98R
KIRKSVILLE     PTCLDY    64  60  87 SW5       29.98R

$$
MOZ066>068-077>081-088>096-101>105-250400-
...SOUTHWEST MISSOURI...

CITY           SKY/WX    TMP DP  RH WIND       PRES   REMARKS
SPRINGFIELD    CLEAR     61  57  87 S7        30.06R
JOPLIN         CLEAR     65  60  84 S9        30.05R

$$
MOZ032>034-039>042-045>050-055>058-069>072-250400-
...CENTRAL MISSOURI...

CITY           SKY/WX    TMP DP  RH WIND       PRES   REMARKS
COLUMBIA       PTCLDY    64  59  83 SW8       29.99R
JEFFERSON CITY CLEAR     67  59  75 CALM      29.99R
ROLLA          CLEAR     63  58  83 SW12      30.01S
SEDALIA        CLEAR     68  60  75 SW13      30.01R
OSAGE BEACH    CLEAR     64  57  77 CALM      30.02S

$$
MOZ051-052-059>065-250400-
...EAST CENTRAL MISSOURI...

CITY           SKY/WX    TMP DP  RH WIND       PRES   REMARKS
ST LOUIS INTL  PTCLDY    67  49  52 S5        30.00S
SPIRIT OF STL  PTCLDY    67  56  67 SW10      29.98S
ST CHARLES     PTCLDY    57  53  86 E3        29.99R

$$
MOZ072>076-082>087-097>100-106>115-250400-
...SOUTH CENTRAL AND SOUTHEAST MISSOURI...

CITY           SKY/WX    TMP DP  RH WIND       PRES   REMARKS
CAPE GIRARDEAU PTCLDY    55  52  89 CALM      30.06R
FARMINGTON     PTCLDY    61  52  72 S5        30.07S
POPLAR BLUFF   MOCLDY    56  52  86 CALM      30.06R
WEST PLAINS    PTCLDY    63  56  78 S5        30.09S

$$



USA.gov is the U.S. government's official web portal to all federal, state and local government web resources and services.